[[{"header":{"parameterUnit":"m.s-1","parameterCategory":2,"la1":30.2991,"la2":30.254,"lo1":-89.0895,"lo2":-89.0444,"dy":0.0017,"dx":0.0017,"nx":28,"ny":28,"refTime":"2024-06-16T21:00:00:Z","depth":"0","parameterNumber":2,"parameterNumberName":"U-component_of_CURRENTS"},"data":[0,0,0,0,0,0,0,0,0,0,0,0,0,0,0,0,0,0,0,0,0,0,0,0,0,0,0,0,0,0,0,0,0,0,0,0,0,0,0,0,0,0,0,0,0,0,0,0,0,0,0,0,0,0,0,0,0,0,-0.2545,-0.2545,0,-0.2548,-0.2548,-0.2547,-0.2503,-0.2502,-0.2502,-0.2501,-0.2464,-0.2464,-0.2464,0,0,0,0,0,0,0,0,0,0,0,0,0,-0.2461,-0.2462,-0.2545,-0.2545,-0.2546,-0.2548,-0.2548,-0.2547,-0.2503,-0.2502,-0.2501,-0.25,-0.2465,-0.2464,-0.2464,0,0,0,0,0,0,0,0,0,0,0,0,0,-0.2479,-0.2463,-0.2545,-0.2528,-0.2527,-0.2548,-0.2548,-0.2547,-0.2503,-0.2502,-0.2501,-0.25,-0.2465,-0.2464,-0.2464,-0.2483,0,0,-0.2462,-0.2462,0,0,0,0,0,0,0,0,-0.2478,-0.2481,-0.253,-0.2529,-0.2528,-0.2529,-0.2505,-0.2526,-0.2504,-0.2507,-0.2501,-0.25,-0.2486,-0.2484,-0.248,-0.2481,-0.248,-0.2462,-0.2462,-0.2462,-0.2462,0,0,0,0,0,0,0,-0.2477,-0.2481,-0.2541,-0.2531,-0.2529,-0.2507,-0.2508,-0.2508,-0.2498,-0.2506,-0.2504,-0.2514,-0.2485,-0.2481,-0.2479,-0.2479,-0.2462,-0.2462,-0.2462,-0.2462,-0.2508,-0.2509,0,0,0,0,0,0,-0.2491,-0.248,-0.2541,-0.2541,-0.2506,-0.251,-0.2511,-0.2525,-0.2499,-0.2495,-0.2514,-0.2512,-0.2482,-0.248,-0.2478,-0.2522,-0.2462,-0.2462,-0.2461,-0.2506,-0.2508,-0.251,0,0,0,0,0,0,-0.2489,-0.2496,-0.2541,-0.2514,-0.2519,-0.2514,-0.2529,-0.2526,-0.2522,-0.2506,-0.2501,-0.2515,-0.2481,-0.2478,-0.248,-0.2519,-0.2461,-0.2461,-0.2505,-0.2507,-0.2509,-0.2596,0,0,0,0,0,0,-0.2487,-0.2496,-0.2505,-0.2516,-0.2521,-0.2568,-0.2531,-0.2527,-0.2532,-0.2528,-0.2505,-0.25,-0.248,-0.2481,-0.2479,-0.2518,-0.2461,-0.2503,-0.2506,-0.2508,-0.2592,-0.2601,-0.261,0,0,0,0,0,-0.2484,-0.2507,-0.2505,-0.2512,-0.2536,-0.257,-0.257,-0.2558,-0.2534,-0.2546,-0.2521,-0.2501,-0.2498,-0.2481,-0.2479,-0.2519,-0.2501,-0.2505,-0.2508,-0.2588,-0.2599,-0.2609,0,0,0,0,0,0,-0.2471,-0.2506,-0.2504,-0.2534,-0.2557,-0.2564,-0.2573,-0.2565,-0.2555,-0.2543,-0.2514,-0.2509,-0.253,-0.251,-0.2493,-0.254,-0.2499,-0.2502,-0.256,-0.2571,-0.258,-0.2591,-0.246,0,0,0,0,0,-0.2477,-0.2501,-0.2531,-0.2554,-0.2569,-0.257,-0.2578,-0.2576,-0.2573,-0.2567,-0.2552,-0.2538,-0.2544,-0.2544,-0.2542,-0.2565,-0.2551,-0.259,-0.2599,-0.2607,-0.2615,-0.2623,-0.2634,-0.2521,-0.2521,-0.2521,0,0,-0.2476,-0.2499,-0.251,-0.2553,-0.2562,-0.2602,-0.2571,-0.2594,-0.2624,-0.2566,-0.2587,-0.257,-0.2557,-0.2583,-0.2591,-0.257,-0.2635,-0.2611,-0.2618,-0.2622,-0.2628,-0.2639,-0.2649,-0.2523,-0.2523,-0.2522,0,0,-0.2498,-0.2512,-0.2544,-0.2574,-0.2608,-0.2619,-0.2632,-0.2648,-0.2651,-0.2672,-0.2644,-0.2645,-0.2646,-0.2651,-0.2652,-0.271,-0.2683,-0.2713,-0.2768,-0.2777,-0.2786,-0.2794,-0.2803,-0.2811,-0.2717,-0.2717,-0.2718,0,-0.2493,-0.2543,-0.2557,-0.2604,-0.2633,-0.2634,-0.268,-0.2697,-0.2709,-0.272,-0.2689,-0.2701,-0.2683,-0.2729,-0.2744,-0.2733,-0.2728,-0.2728,-0.2789,-0.2796,-0.2803,-0.281,-0.2818,-0.2722,-0.2722,-0.2721,-0.2721,0,-0.2545,-0.2588,-0.2612,-0.2673,-0.2706,-0.2745,-0.2782,-0.2806,-0.2801,-0.2811,-0.2841,-0.2816,-0.2817,-0.2824,-0.2798,-0.285,-0.283,-0.28,-0.2761,-0.282,-0.2823,-0.283,-0.2729,-0.2727,-0.2726,-0.2724,0,0,-0.252,-0.2628,-0.2632,-0.2676,-0.2746,-0.2777,-0.2841,-0.2896,-0.2929,-0.2935,-0.2973,-0.2979,-0.2948,-0.2947,-0.2923,-0.2933,-0.2973,-0.2889,-0.2887,-0.2899,-0.2996,-0.2987,-0.2992,-0.2951,-0.2953,-0.2954,-0.2983,0,-0.2551,-0.2648,-0.2694,-0.278,-0.2834,-0.2873,-0.2934,-0.2981,-0.3,-0.3038,-0.3032,-0.3048,-0.3004,-0.2994,-0.3004,-0.2976,-0.2992,-0.2968,-0.2936,-0.2936,-0.2921,-0.3,-0.2949,-0.2971,-0.2989,-0.299,-0.2991,0,-0.2579,-0.2644,-0.2734,-0.2844,-0.287,-0.2915,-0.2996,-0.3051,-0.3113,-0.3127,-0.3145,-0.3132,-0.3152,-0.3094,-0.3096,-0.3081,-0.3048,-0.3028,-0.3028,-0.2993,-0.2939,-0.2913,-0.2981,-0.2974,-0.3,-0.3,-0.2999,0,-0.2545,-0.2667,-0.2737,-0.2775,-0.2899,-0.2933,-0.2984,-0.3059,-0.3104,-0.3166,-0.3189,-0.3215,-0.3208,-0.3191,-0.314,-0.3117,-0.314,-0.3097,-0.3069,-0.3068,-0.3004,-0.2995,-0.3061,-0.3109,-0.3108,-0.3108,-0.3108,0,-0.2559,-0.2612,-0.272,-0.2759,-0.2825,-0.2916,-0.2978,-0.3035,-0.3119,-0.3171,-0.321,-0.3241,-0.3228,-0.3233,-0.3185,-0.3156,-0.3172,-0.3103,-0.3085,-0.3035,-0.3028,-0.3,-0.2992,-0.3109,-0.3109,-0.3109,-0.3109,0,-0.2505,-0.2589,-0.2663,-0.278,-0.2809,-0.2841,-0.2949,-0.3002,-0.3089,-0.3156,-0.3174,-0.3257,-0.327,-0.3264,-0.3242,-0.3206,-0.3145,-0.3162,-0.311,-0.3086,-0.305,-0.3047,-0.3046,-0.2964,-0.3147,-0.3147,-0.3147,0,-0.2485,-0.2521,-0.2629,-0.2659,-0.2701,-0.2769,-0.2823,-0.2947,-0.3004,-0.3153,-0.3178,-0.3244,-0.328,-0.3284,-0.3237,-0.3202,-0.3142,-0.313,-0.3079,-0.3071,-0.3054,-0.3014,-0.294,-0.303,-0.3029,-0.3028,-0.3028,0,-0.2423,-0.2453,-0.2507,-0.2566,-0.2617,-0.2685,-0.2766,-0.2819,-0.2972,-0.3055,-0.3167,-0.3223,-0.3269,-0.3251,-0.3225,-0.3164,-0.3079,-0.3114,-0.3116,-0.2994,-0.2943,-0.2846,-0.299,-0.3021,-0.3022,-0.3022,-0.3023,-0.3023,-0.234,-0.2344,-0.2405,-0.2451,-0.2514,-0.2571,-0.2578,-0.2711,-0.2802,-0.2923,-0.3072,-0.3171,-0.3245,-0.3214,-0.3168,-0.3085,-0.303,-0.3005,-0.3011,-0.2977,-0.2881,-0.3025,-0.3027,-0.3028,-0.3029,-0.3029,-0.303,0,-0.2233,-0.2253,-0.229,-0.2335,-0.2347,-0.2425,-0.2515,-0.2513,-0.2582,-0.2793,-0.2903,-0.312,-0.3133,-0.3172,-0.3144,-0.3036,-0.2912,-0.294,-0.2871,-0.2801,-0.2945,-0.2923,-0.2891,-0.2891,-0.2891,-0.2891,-0.2891,-0.2891,-0.2174,-0.2163,-0.2186,-0.215,-0.2175,-0.2136,-0.2153,-0.2197,-0.2306,-0.2492,-0.27,-0.2933,-0.2988,-0.3283,-0.3186,-0.3038,-0.2905,-0.2823,-0.2782,-0.2909,-0.2915,-0.2921,-0.2901,-0.2864,-0.2864,-0.2565,-0.2563,-0.2562]},{"header":{"parameterUnit":"m.s-1","parameterCategory":2,"la1":30.2991,"la2":30.254,"lo1":-89.0895,"lo2":-89.0444,"dy":0.0017,"dx":0.0017,"nx":28,"ny":28,"refTime":"2024-06-16T21:00:00:Z","depth":"0","parameterNumber":3,"parameterNumberName":"V-component_of_CURRENTS"},"data":[0,0,0,0,0,0,0,0,0,0,0,0,0,0,0,0,0,0,0,0,0,0,0,0,0,0,0,0,0,0,0,0,0,0,0,0,0,0,0,0,0,0,0,0,0,0,0,0,0,0,0,0,0,0,0,0,0,0,-0.021,-0.0209,0,-0.0086,-0.0084,-0.0083,-0.001,-0.001,-0.001,-0.001,0.0155,0.0159,0.0163,0,0,0,0,0,0,0,0,0,0,0,0,0,-0.0304,-0.0303,-0.021,-0.0209,-0.0207,-0.0086,-0.0084,-0.0083,-0.001,-0.001,-0.001,-0.001,0.0154,0.0159,0.0164,0,0,0,0,0,0,0,0,0,0,0,0,0,-0.0229,-0.0303,-0.0211,-0.0158,-0.0152,-0.0087,-0.0084,-0.0082,-0.0011,-0.001,-0.001,-0.001,0.0152,0.0158,0.0165,0.0198,0,0,0.0184,0.0187,0,0,0,0,0,0,0,0,-0.0234,-0.0226,-0.0167,-0.0161,-0.0154,-0.0064,-0.0057,0.0013,-0.0011,-0.0063,-0.001,-0.001,0.0085,0.0097,0.012,0.0205,0.0212,0.0184,0.0188,0.0191,0.0193,0,0,0,0,0,0,0,-0.0239,-0.023,-0.016,-0.0165,-0.0158,-0.0112,-0.0102,-0.0043,0.0009,-0.0058,-0.0053,-0.0041,0.0089,0.0114,0.0125,0.0215,0.0184,0.019,0.0194,0.0196,0.0341,0.0341,0,0,0,0,0,0,-0.0261,-0.0236,-0.0164,-0.0156,-0.0195,-0.0111,-0.01,-0.0093,0.0008,0.0023,-0.0041,-0.0038,0.0103,0.0117,0.0131,0.0181,0.0191,0.0197,0.02,0.0341,0.0341,0.0341,0,0,0,0,0,0,-0.0264,-0.0256,-0.0169,-0.0194,-0.0179,-0.0111,-0.0103,-0.009,-0.0065,0.002,0.0036,-0.0029,0.0104,0.0122,0.0184,0.0188,0.02,0.0205,0.0341,0.0341,0.0341,0.0279,0,0,0,0,0,0,-0.0267,-0.0258,-0.0262,-0.0195,-0.0179,-0.0138,-0.0103,-0.0088,-0.0058,-0.0053,0.0036,0.0052,0.0105,0.0174,0.0191,0.0197,0.021,0.0341,0.0341,0.0341,0.0281,0.0277,0.0273,0,0,0,0,0,-0.0271,-0.028,-0.0263,-0.0254,-0.0186,-0.0138,-0.0125,-0.0074,-0.0058,-0.005,0.0013,0.0049,0.0186,0.018,0.0199,0.0207,0.0341,0.0341,0.0341,0.0283,0.0278,0.0274,0,0,0,0,0,0,-0.0322,-0.0271,-0.0251,-0.0244,-0.0198,-0.0126,-0.0116,-0.0081,-0.0025,-0.0021,0.0058,0.0078,0.0131,0.0177,0.0167,0.0247,0.0267,0.0271,0.0216,0.0212,0.0208,0.019,0.0216,0,0,0,0,0,-0.0337,-0.0331,-0.0271,-0.0266,-0.0249,-0.0184,-0.016,-0.0124,-0.0066,-0.0042,0.0022,0.0087,0.0146,0.0184,0.0239,0.029,0.0333,0.0304,0.03,0.0297,0.0295,0.0364,0.0367,0.0342,0.0342,0.0342,0,0,-0.0356,-0.0328,-0.0324,-0.0277,-0.024,-0.0218,-0.0169,-0.0138,-0.0112,-0.0032,0.0018,0.0076,0.0155,0.0208,0.0236,0.0249,0.0326,0.0297,0.0294,0.0293,0.0365,0.0367,0.037,0.0342,0.0342,0.0342,0,0,-0.0396,-0.0368,-0.0377,-0.0342,-0.0293,-0.0248,-0.0244,-0.0175,-0.0137,-0.0082,-0.0021,0.0041,0.013,0.0192,0.0233,0.0244,0.0299,0.0255,0.0232,0.0299,0.0302,0.0305,0.0354,0.0362,0.0258,0.0258,0.0258,0,-0.0423,-0.0423,-0.0371,-0.0366,-0.0343,-0.0269,-0.0267,-0.0214,-0.0131,-0.0097,-0.0078,0.0062,0.0124,0.0204,0.0204,0.0237,0.0274,0.0241,0.0294,0.0298,0.0302,0.0352,0.0362,0.0255,0.0256,0.0256,0.0256,0,-0.0462,-0.046,-0.0462,-0.043,-0.0396,-0.0383,-0.0307,-0.0268,-0.0217,-0.0156,-0.0073,0.0021,0.0104,0.0133,0.0173,0.0234,0.025,0.0275,0.0302,0.03,0.0354,0.0365,0.0251,0.0252,0.0253,0.0254,0,0,-0.053,-0.05,-0.0501,-0.0501,-0.0431,-0.0411,-0.0363,-0.0297,-0.0267,-0.0174,-0.0122,-0.0013,0.004,0.009,0.0158,0.022,0.0277,0.025,0.0255,0.0293,0.0413,0.0473,0.0492,0.0309,0.0311,0.0312,0.0435,0,-0.058,-0.0609,-0.0558,-0.0564,-0.0572,-0.0483,-0.0444,-0.0369,-0.0293,-0.0222,-0.0104,-0.0034,0.0026,0.0061,0.0136,0.0247,0.0304,0.0241,0.0414,0.0419,0.0469,0.0506,0.0571,0.0691,0.0446,0.0448,0.0449,0,-0.0631,-0.0647,-0.0678,-0.0645,-0.0636,-0.0615,-0.0544,-0.0498,-0.0371,-0.0308,-0.0203,-0.0109,0.0014,0.0049,0.0247,0.0202,0.0292,0.0376,0.0383,0.047,0.0502,0.0657,0.0721,0.0926,0.0467,0.0466,0.0464,0,-0.0724,-0.072,-0.0756,-0.0745,-0.0695,-0.0679,-0.0642,-0.0533,-0.0494,-0.0365,-0.032,-0.0153,-0.0069,0.0078,0.0266,0.0251,0.0476,0.0482,0.0623,0.0627,0.0734,0.0746,0.1016,0.0602,0.0602,0.0601,0.0601,0,-0.0797,-0.0819,-0.0808,-0.0827,-0.0853,-0.0775,-0.0764,-0.0695,-0.0594,-0.0547,-0.0381,-0.0302,-0.0061,0.0106,0.0257,0.0492,0.0478,0.0631,0.0674,0.0713,0.0721,0.0945,0.1012,0.0606,0.0605,0.0604,0.0603,0,-0.0885,-0.0879,-0.0919,-0.0903,-0.0901,-0.0919,-0.0865,-0.0852,-0.0739,-0.0672,-0.0635,-0.0405,-0.0169,0.0079,0.034,0.0486,0.0825,0.0767,0.0793,0.0837,0.1151,0.1209,0.1494,0.1588,0.0944,0.0947,0.0949,0,-0.0933,-0.097,-0.0999,-0.1036,-0.1032,-0.1043,-0.1049,-0.0948,-0.0915,-0.0732,-0.0703,-0.0455,-0.0254,0.0179,0.0498,0.0812,0.094,0.1025,0.1015,0.12,0.1297,0.1332,0.1392,0.1128,0.1131,0.1134,0.1136,0,-0.1022,-0.1031,-0.107,-0.1162,-0.1194,-0.1216,-0.1202,-0.1194,-0.1058,-0.0969,-0.0794,-0.0617,-0.0144,0.0297,0.0728,0.0898,0.119,0.1088,0.1293,0.1482,0.1527,0.1627,0.0996,0.116,0.1158,0.1156,0.1155,0.1154,-0.108,-0.114,-0.1204,-0.1283,-0.1331,-0.1368,-0.1386,-0.1332,-0.1273,-0.11,-0.0888,-0.0571,0.0129,0.0775,0.0995,0.1492,0.1396,0.1617,0.1676,0.1696,0.1795,0.1207,0.1409,0.1408,0.1407,0.1407,0.1406,0,-0.1154,-0.1226,-0.132,-0.1408,-0.1482,-0.1471,-0.1474,-0.1465,-0.1402,-0.1158,-0.0936,-0.0159,0.0513,0.1117,0.1863,0.2096,0.2113,0.2184,0.2266,0.2298,0.1812,0.183,0.2118,0.2117,0.2117,0.2117,0.2117,0.2117,-0.1197,-0.1314,-0.1373,-0.1525,-0.158,-0.1653,-0.1658,-0.1607,-0.1447,-0.106,-0.0622,-0.023,0.0707,0.2011,0.2673,0.2678,0.2857,0.2813,0.2893,0.2583,0.2534,0.2488,0.2526,0.2954,0.2955,0.337,0.3374,0.3378]}],[{"header":{"parameterUnit":"m.s-1","parameterCategory":2,"la1":30.2991,"la2":30.254,"lo1":-89.0895,"lo2":-89.0444,"dy":0.0017,"dx":0.0017,"nx":28,"ny":28,"refTime":"2024-06-16T21:00:00:Z","depth":"2","parameterNumber":2,"parameterNumberName":"U-component_of_CURRENTS"},"data":[0,0,0,0,0,0,0,0,0,0,0,0,0,0,0,0,0,0,0,0,0,0,0,0,0,0,0,0,0,0,0,0,0,0,0,0,0,0,0,0,0,0,0,0,0,0,0,0,0,0,0,0,0,0,0,0,0,0,-0.2442,-0.2443,0,-0.2444,-0.2444,-0.2444,-0.2402,-0.2401,-0.24,-0.24,-0.2364,-0.2363,-0.2363,0,0,0,0,0,0,0,0,0,0,0,0,0,-0.2362,-0.2364,-0.2442,-0.2443,-0.2443,-0.2445,-0.2444,-0.2444,-0.2402,-0.2401,-0.24,-0.2399,-0.2364,-0.2364,-0.2363,0,0,0,0,0,0,0,0,0,0,0,0,0,-0.2379,-0.2364,-0.2442,-0.2426,-0.2425,-0.2445,-0.2444,-0.2443,-0.2402,-0.2401,-0.24,-0.2399,-0.2364,-0.2364,-0.2363,-0.238,0,0,-0.2361,-0.2361,0,0,0,0,0,0,0,0,-0.2378,-0.2382,-0.2428,-0.2428,-0.2427,-0.2426,-0.2403,-0.2422,-0.2402,-0.2405,-0.24,-0.2399,-0.2385,-0.2383,-0.2379,-0.2378,-0.2376,-0.2361,-0.2361,-0.2361,-0.2361,0,0,0,0,0,0,0,-0.2377,-0.2381,-0.2438,-0.2429,-0.2428,-0.2406,-0.2407,-0.2406,-0.2396,-0.2405,-0.2403,-0.2412,-0.2384,-0.2379,-0.2378,-0.2376,-0.2361,-0.2361,-0.2361,-0.236,-0.2404,-0.2406,0,0,0,0,0,0,-0.2391,-0.2381,-0.2438,-0.2438,-0.2405,-0.2409,-0.241,-0.2423,-0.2397,-0.2394,-0.2413,-0.241,-0.2381,-0.2378,-0.2376,-0.2421,-0.2361,-0.236,-0.236,-0.2403,-0.2405,-0.2406,0,0,0,0,0,0,-0.2389,-0.2396,-0.2438,-0.2413,-0.2417,-0.2412,-0.2427,-0.2424,-0.2422,-0.2404,-0.2399,-0.2415,-0.238,-0.2377,-0.2379,-0.2418,-0.236,-0.236,-0.2401,-0.2403,-0.2405,-0.2494,0,0,0,0,0,0,-0.2387,-0.2396,-0.2405,-0.2414,-0.242,-0.2464,-0.2428,-0.2425,-0.2431,-0.2427,-0.2405,-0.24,-0.2379,-0.238,-0.2378,-0.2416,-0.2359,-0.2399,-0.2402,-0.2405,-0.2489,-0.2499,-0.2507,0,0,0,0,0,-0.2384,-0.2407,-0.2406,-0.2412,-0.2434,-0.2466,-0.2467,-0.2455,-0.2432,-0.2445,-0.2421,-0.2401,-0.2396,-0.238,-0.2378,-0.2417,-0.2398,-0.2401,-0.2404,-0.2485,-0.2497,-0.2507,0,0,0,0,0,0,-0.2374,-0.2406,-0.2404,-0.2434,-0.2455,-0.2461,-0.247,-0.2463,-0.2453,-0.2443,-0.2414,-0.2409,-0.2429,-0.2409,-0.2392,-0.2438,-0.2397,-0.24,-0.2459,-0.247,-0.2479,-0.2489,-0.2359,0,0,0,0,0,-0.238,-0.2403,-0.2431,-0.2453,-0.2467,-0.2469,-0.2477,-0.2474,-0.2472,-0.2466,-0.2451,-0.2438,-0.2443,-0.2443,-0.244,-0.2461,-0.2448,-0.2487,-0.2496,-0.2504,-0.2511,-0.2519,-0.253,-0.2417,-0.2417,-0.2417,0,0,-0.238,-0.2402,-0.2412,-0.2452,-0.2462,-0.25,-0.247,-0.2493,-0.2522,-0.2465,-0.2487,-0.2469,-0.2455,-0.2481,-0.2489,-0.2468,-0.2532,-0.2508,-0.2515,-0.2518,-0.2524,-0.2535,-0.2545,-0.2419,-0.2419,-0.2418,0,0,-0.2402,-0.2415,-0.2446,-0.2475,-0.2508,-0.2518,-0.2531,-0.2547,-0.255,-0.2571,-0.2543,-0.2545,-0.2545,-0.2548,-0.2549,-0.2606,-0.258,-0.261,-0.2665,-0.2673,-0.2683,-0.2691,-0.27,-0.2708,-0.2614,-0.2615,-0.2615,0,-0.2399,-0.2445,-0.2459,-0.2504,-0.2532,-0.2533,-0.2578,-0.2594,-0.2606,-0.2618,-0.2588,-0.26,-0.2582,-0.2625,-0.2641,-0.2629,-0.2626,-0.2625,-0.2686,-0.2693,-0.27,-0.2707,-0.2715,-0.2619,-0.2619,-0.2618,-0.2618,0,-0.2449,-0.249,-0.2513,-0.2572,-0.2604,-0.2642,-0.2678,-0.2701,-0.2698,-0.2707,-0.2738,-0.2713,-0.2713,-0.2721,-0.2695,-0.2747,-0.2727,-0.2697,-0.2658,-0.2717,-0.2721,-0.2727,-0.2626,-0.2624,-0.2623,-0.2622,0,0,-0.2426,-0.2529,-0.2533,-0.2576,-0.2643,-0.2673,-0.2735,-0.2789,-0.2822,-0.2829,-0.2867,-0.2872,-0.2843,-0.2841,-0.2818,-0.2828,-0.287,-0.2785,-0.2784,-0.2796,-0.2893,-0.2883,-0.2888,-0.2849,-0.285,-0.2851,-0.2882,0,-0.2457,-0.2549,-0.2593,-0.2677,-0.2728,-0.2766,-0.2826,-0.2872,-0.2892,-0.2929,-0.2924,-0.2941,-0.2897,-0.2889,-0.2899,-0.2872,-0.2889,-0.2864,-0.2834,-0.2833,-0.2818,-0.2896,-0.2627,-0.2631,-0.2888,-0.2889,-0.2889,0,-0.2484,-0.2546,-0.2633,-0.2739,-0.2763,-0.2807,-0.2887,-0.294,-0.3002,-0.3017,-0.3036,-0.3024,-0.3045,-0.2988,-0.2991,-0.2976,-0.2945,-0.2925,-0.2925,-0.2888,-0.2835,-0.2612,-0.2633,-0.29,-0.2899,-0.2898,-0.2897,0,-0.2452,-0.2569,-0.2636,-0.2673,-0.2792,-0.2826,-0.2876,-0.295,-0.2994,-0.3057,-0.3081,-0.3107,-0.3101,-0.3085,-0.3036,-0.3014,-0.3037,-0.2993,-0.2966,-0.2964,-0.2715,-0.269,-0.3006,-0.3006,-0.3006,-0.3006,-0.3006,0,-0.2465,-0.2516,-0.2621,-0.2658,-0.2722,-0.281,-0.2872,-0.2929,-0.3011,-0.3062,-0.3102,-0.3133,-0.3122,-0.3127,-0.3081,-0.3052,-0.3069,-0.2999,-0.2981,-0.2741,-0.2719,-0.2926,-0.2916,-0.3007,-0.3007,-0.3006,-0.3006,0,-0.2412,-0.2494,-0.2565,-0.2678,-0.2708,-0.2739,-0.2845,-0.2896,-0.2984,-0.305,-0.3069,-0.315,-0.3164,-0.3159,-0.3138,-0.3101,-0.3076,-0.3058,-0.2788,-0.274,-0.2988,-0.2982,-0.3041,-0.3042,-0.3042,-0.3042,-0.3042,0,-0.2393,-0.2428,-0.2533,-0.2562,-0.2604,-0.2671,-0.2723,-0.2845,-0.29,-0.3047,-0.3071,-0.3137,-0.3166,-0.317,-0.308,-0.3033,-0.3084,-0.2797,-0.2716,-0.302,-0.2996,-0.299,-0.2985,-0.2411,-0.2406,-0.2402,-0.2399,0,-0.2332,-0.2363,-0.2414,-0.2472,-0.2522,-0.2587,-0.2667,-0.2717,-0.2867,-0.2943,-0.3052,-0.31,-0.3106,-0.2953,-0.2909,-0.2829,-0.2788,-0.2717,-0.3081,-0.2471,-0.2435,-0.2409,-0.2422,-0.2362,-0.2365,-0.2368,-0.237,-0.2371,-0.2252,-0.2255,-0.2314,-0.2359,-0.2421,-0.2475,-0.248,-0.2584,-0.2664,-0.2712,-0.2892,-0.2865,-0.2852,-0.2651,-0.2551,-0.2445,-0.262,-0.2489,-0.2497,-0.251,-0.2458,-0.2428,-0.2342,-0.2346,-0.2349,-0.2351,-0.2354,0,-0.2135,-0.2166,-0.2201,-0.2244,-0.2242,-0.2333,-0.2417,-0.2361,-0.2386,-0.247,-0.252,-0.231,-0.226,-0.2248,-0.2038,-0.2044,-0.1952,-0.1963,-0.182,-0.1859,-0.1893,-0.1805,-0.1518,-0.1516,-0.1514,-0.1512,0,0,-0.2075,-0.2057,-0.2078,-0.2035,-0.207,-0.2003,-0.2017,-0.1963,-0.1956,-0.1877,-0.1868,-0.2058,-0.2164,-0.1822,-0.1759,-0.161,-0.1699,-0.1524,-0.2186,-0.2051,-0.2082,-0.2186,-0.2095,0,0,0,0,0]},{"header":{"parameterUnit":"m.s-1","parameterCategory":2,"la1":30.2991,"la2":30.254,"lo1":-89.0895,"lo2":-89.0444,"dy":0.0017,"dx":0.0017,"nx":28,"ny":28,"refTime":"2024-06-16T21:00:00:Z","depth":"2","parameterNumber":3,"parameterNumberName":"V-component_of_CURRENTS"},"data":[0,0,0,0,0,0,0,0,0,0,0,0,0,0,0,0,0,0,0,0,0,0,0,0,0,0,0,0,0,0,0,0,0,0,0,0,0,0,0,0,0,0,0,0,0,0,0,0,0,0,0,0,0,0,0,0,0,0,-0.0191,-0.0189,0,-0.0068,-0.0067,-0.0065,0.0005,0.0005,0.0005,0.0006,0.0169,0.0173,0.0177,0,0,0,0,0,0,0,0,0,0,0,0,0,-0.0284,-0.0283,-0.0191,-0.0189,-0.0188,-0.0068,-0.0067,-0.0065,0.0005,0.0005,0.0006,0.0006,0.0168,0.0173,0.0178,0,0,0,0,0,0,0,0,0,0,0,0,0,-0.021,-0.0283,-0.0191,-0.0139,-0.0133,-0.0069,-0.0067,-0.0064,0.0005,0.0005,0.0006,0.0006,0.0166,0.0172,0.0178,0.0212,0,0,0.0198,0.02,0,0,0,0,0,0,0,0,-0.0214,-0.0206,-0.0148,-0.0143,-0.0136,-0.0047,-0.004,0.003,0.0005,-0.0046,0.0006,0.0006,0.01,0.0111,0.0135,0.022,0.0227,0.0198,0.0202,0.0205,0.0206,0,0,0,0,0,0,0,-0.022,-0.0211,-0.0141,-0.0147,-0.0139,-0.0095,-0.0085,-0.0026,0.0025,-0.0042,-0.0037,-0.0025,0.0103,0.0128,0.0139,0.0229,0.0198,0.0203,0.0207,0.021,0.0354,0.0354,0,0,0,0,0,0,-0.0241,-0.0216,-0.0145,-0.0138,-0.0177,-0.0094,-0.0082,-0.0075,0.0024,0.0039,-0.0025,-0.0022,0.0118,0.0132,0.0145,0.0195,0.0205,0.021,0.0214,0.0354,0.0354,0.0354,0,0,0,0,0,0,-0.0244,-0.0236,-0.015,-0.0174,-0.0161,-0.0093,-0.0085,-0.0073,-0.0048,0.0036,0.0052,-0.0013,0.0118,0.0136,0.0198,0.0201,0.0213,0.0219,0.0354,0.0354,0.0354,0.0292,0,0,0,0,0,0,-0.0247,-0.0238,-0.0242,-0.0176,-0.016,-0.0119,-0.0085,-0.0071,-0.0042,-0.0036,0.0052,0.0067,0.012,0.0188,0.0204,0.021,0.0224,0.0353,0.0354,0.0354,0.0294,0.029,0.0286,0,0,0,0,0,-0.0251,-0.0259,-0.0243,-0.0234,-0.0167,-0.0119,-0.0107,-0.0057,-0.0042,-0.0033,0.0028,0.0064,0.02,0.0194,0.0213,0.022,0.0353,0.0354,0.0354,0.0295,0.029,0.0286,0,0,0,0,0,0,-0.0301,-0.0251,-0.0232,-0.0224,-0.0179,-0.0108,-0.0098,-0.0063,-0.0008,-0.0005,0.0073,0.0093,0.0145,0.0191,0.0182,0.026,0.028,0.0284,0.0229,0.0225,0.0221,0.0203,0.0229,0,0,0,0,0,-0.0316,-0.031,-0.025,-0.0246,-0.0229,-0.0165,-0.0141,-0.0107,-0.0049,-0.0025,0.0038,0.0102,0.016,0.0197,0.0252,0.0302,0.0346,0.0317,0.0313,0.0309,0.0307,0.0376,0.0378,0.0354,0.0354,0.0354,0,0,-0.0335,-0.0307,-0.0303,-0.0256,-0.022,-0.0198,-0.015,-0.012,-0.0095,-0.0015,0.0034,0.0091,0.0169,0.0222,0.0249,0.0262,0.0338,0.031,0.0306,0.0305,0.0376,0.0379,0.0381,0.0354,0.0354,0.0354,0,0,-0.0374,-0.0346,-0.0355,-0.0321,-0.0273,-0.0229,-0.0225,-0.0156,-0.012,-0.0065,-0.0005,0.0056,0.0144,0.0205,0.0246,0.0256,0.0311,0.0267,0.0243,0.031,0.0313,0.0315,0.0364,0.0372,0.027,0.027,0.027,0,-0.0401,-0.0401,-0.0349,-0.0344,-0.0322,-0.0249,-0.0247,-0.0195,-0.0113,-0.0081,-0.0061,0.0077,0.0138,0.0217,0.0216,0.0249,0.0286,0.0253,0.0305,0.0309,0.0313,0.0362,0.0372,0.0267,0.0268,0.0268,0.0268,0,-0.0439,-0.0437,-0.0439,-0.0408,-0.0374,-0.0362,-0.0287,-0.0249,-0.0199,-0.0139,-0.0057,0.0035,0.0117,0.0145,0.0186,0.0245,0.0261,0.0286,0.0313,0.0311,0.0364,0.0375,0.0263,0.0264,0.0265,0.0266,0,0,-0.0506,-0.0477,-0.0477,-0.0478,-0.041,-0.039,-0.0343,-0.0278,-0.025,-0.0158,-0.0107,-0.0,0.0053,0.0102,0.0169,0.023,0.0286,0.026,0.0265,0.0302,0.042,0.0477,0.0495,0.0319,0.032,0.0322,0.0442,0,-0.0555,-0.0584,-0.0535,-0.0542,-0.055,-0.0462,-0.0424,-0.0351,-0.0276,-0.0206,-0.009,-0.0021,0.0038,0.0073,0.0147,0.0256,0.0313,0.0251,0.0422,0.0427,0.0474,0.0509,0.0427,0.0532,0.0453,0.0455,0.0457,0,-0.0606,-0.0622,-0.0654,-0.0622,-0.0613,-0.0593,-0.0524,-0.0479,-0.0354,-0.0293,-0.0189,-0.0096,0.0024,0.006,0.0255,0.0211,0.0301,0.0383,0.039,0.0474,0.0505,0.0525,0.0556,0.0475,0.0474,0.0472,0.0471,0,-0.0698,-0.0696,-0.0732,-0.0721,-0.0673,-0.0657,-0.0621,-0.0515,-0.0476,-0.035,-0.0305,-0.014,-0.0058,0.0088,0.0273,0.026,0.048,0.0488,0.0624,0.0628,0.061,0.061,0.0606,0.0606,0.0606,0.0605,0.0605,0,-0.0772,-0.0794,-0.0783,-0.0803,-0.0829,-0.0752,-0.0743,-0.0676,-0.0576,-0.053,-0.0366,-0.0289,-0.0051,0.0114,0.0264,0.0495,0.0483,0.0631,0.0674,0.0586,0.0583,0.0573,0.0567,0.061,0.0609,0.0608,0.0607,0,-0.0859,-0.0854,-0.0894,-0.0879,-0.0878,-0.0896,-0.0843,-0.0831,-0.0719,-0.0654,-0.0618,-0.0391,-0.0159,0.0085,0.0344,0.0488,0.0692,0.0764,0.0643,0.0671,0.0789,0.0779,0.093,0.0933,0.0936,0.0938,0.094,0,-0.0907,-0.0944,-0.0974,-0.1011,-0.1007,-0.102,-0.1026,-0.0926,-0.0894,-0.0714,-0.0685,-0.0441,-0.0246,0.018,0.0465,0.0766,0.0767,0.0861,0.0833,0.0801,0.0828,0.0813,0.0799,0.0772,0.0773,0.0773,0.0773,0,-0.0997,-0.1006,-0.1045,-0.1136,-0.1168,-0.119,-0.1177,-0.117,-0.1035,-0.0948,-0.0777,-0.0605,-0.0169,0.0179,0.059,0.074,0.0816,0.088,0.0895,0.0711,0.0666,0.0687,0.0676,0.0776,0.0776,0.0776,0.0775,0.0775,-0.1055,-0.1114,-0.1177,-0.1257,-0.1305,-0.1341,-0.1359,-0.1301,-0.1244,-0.1073,-0.0882,-0.0599,-0.0211,0.0359,0.0644,0.0888,0.0894,0.094,0.0934,0.0928,0.0896,0.086,0.0999,0.1,0.1,0.1001,0.1002,0,-0.1124,-0.12,-0.1293,-0.138,-0.1447,-0.1443,-0.1446,-0.1418,-0.135,-0.1153,-0.0947,-0.0534,-0.0103,0.0285,0.0682,0.0949,0.0891,0.0972,0.0848,0.0844,0.0841,0.0799,0.088,0.088,0.0881,0.0881,0,0,-0.1165,-0.1278,-0.1336,-0.1482,-0.1542,-0.16,-0.1605,-0.1527,-0.1391,-0.1195,-0.0976,-0.0624,-0.0123,0.0147,0.0482,0.0687,0.0675,0.0679,0.0744,0.055,0.0543,0.079,0.0719,0,0,0,0,0]}],[{"header":{"parameterUnit":"m.s-1","parameterCategory":2,"la1":30.2991,"la2":30.254,"lo1":-89.0895,"lo2":-89.0444,"dy":0.0017,"dx":0.0017,"nx":28,"ny":28,"refTime":"2024-06-16T21:00:00:Z","depth":"4","parameterNumber":2,"parameterNumberName":"U-component_of_CURRENTS"},"data":[0,0,0,0,0,0,0,0,0,0,0,0,0,0,0,0,0,0,0,0,0,0,0,0,0,0,0,0,0,0,0,0,0,0,0,0,0,0,0,0,0,0,0,0,0,0,0,0,0,0,0,0,0,0,0,0,0,0,-0.1561,-0.1562,0,-0.16,-0.16,-0.16,-0.1621,-0.1621,-0.1621,-0.1621,-0.1646,-0.1646,-0.1646,0,0,0,0,0,0,0,0,0,0,0,0,0,-0.1478,-0.148,-0.1561,-0.1562,-0.1562,-0.1599,-0.16,-0.16,-0.162,-0.1621,-0.1621,-0.1622,-0.1646,-0.1646,-0.1646,0,0,0,0,0,0,0,0,0,0,0,0,0,-0.1512,-0.148,-0.1561,-0.1579,-0.1582,-0.1599,-0.16,-0.16,-0.162,-0.1621,-0.1621,-0.1622,-0.1646,-0.1646,-0.1647,-0.164,0,0,-0.1648,-0.1648,0,0,0,0,0,0,0,0,-0.1511,-0.1515,-0.1576,-0.1578,-0.1581,-0.1608,-0.158,-0.1614,-0.162,-0.1602,-0.1621,-0.1622,-0.1634,-0.1635,-0.1637,-0.1641,-0.1642,-0.1648,-0.1648,-0.1649,-0.1649,0,0,0,0,0,0,0,-0.1508,-0.1513,-0.1573,-0.1577,-0.158,-0.1577,-0.1582,-0.1586,-0.1612,-0.1604,-0.1606,-0.1615,-0.1634,-0.1637,-0.1638,-0.1643,-0.1648,-0.1649,-0.1649,-0.1649,-0.1726,-0.1728,0,0,0,0,0,0,-0.1511,-0.1511,-0.1572,-0.1575,-0.155,-0.1578,-0.1584,-0.1596,-0.1612,-0.1616,-0.1615,-0.1616,-0.1635,-0.1637,-0.1639,-0.1721,-0.1649,-0.1649,-0.1649,-0.1725,-0.1727,-0.1729,0,0,0,0,0,0,-0.1509,-0.1516,-0.157,-0.1546,-0.1553,-0.158,-0.1593,-0.1597,-0.1629,-0.1622,-0.1625,-0.1646,-0.1636,-0.1638,-0.1671,-0.1719,-0.1649,-0.165,-0.1723,-0.1725,-0.1728,-0.1828,0,0,0,0,0,0,-0.1506,-0.1515,-0.1535,-0.1546,-0.1555,-0.1606,-0.1593,-0.1598,-0.1633,-0.1636,-0.1649,-0.165,-0.1636,-0.167,-0.1671,-0.1718,-0.165,-0.172,-0.1724,-0.1727,-0.1823,-0.1834,-0.1844,0,0,0,0,0,-0.1503,-0.1527,-0.1536,-0.1544,-0.1579,-0.1608,-0.1613,-0.163,-0.1635,-0.1658,-0.1666,-0.1651,-0.1692,-0.1672,-0.1673,-0.1721,-0.1719,-0.1723,-0.1727,-0.1818,-0.1832,-0.1844,0,0,0,0,0,0,-0.1503,-0.1532,-0.1542,-0.1575,-0.1602,-0.1613,-0.1639,-0.1649,-0.1673,-0.1681,-0.167,-0.1672,-0.1719,-0.1704,-0.1682,-0.1752,-0.1704,-0.1709,-0.1774,-0.1787,-0.1797,-0.1799,-0.1651,0,0,0,0,0,-0.1512,-0.1539,-0.1565,-0.1594,-0.1611,-0.1631,-0.1649,-0.1664,-0.1681,-0.1694,-0.1705,-0.1715,-0.1731,-0.1746,-0.1753,-0.179,-0.1772,-0.1822,-0.1832,-0.1841,-0.1844,-0.1858,-0.187,-0.1741,-0.1741,-0.1741,0,0,-0.152,-0.1541,-0.1557,-0.1597,-0.1618,-0.1655,-0.1643,-0.1684,-0.1724,-0.1691,-0.1753,-0.1753,-0.1748,-0.1792,-0.1813,-0.179,-0.1872,-0.1846,-0.1854,-0.1852,-0.1863,-0.1876,-0.1887,-0.1744,-0.1744,-0.1743,0,0,-0.1543,-0.1571,-0.16,-0.1631,-0.1674,-0.169,-0.1711,-0.1745,-0.1773,-0.1821,-0.1813,-0.1841,-0.1867,-0.1876,-0.188,-0.1951,-0.1925,-0.1962,-0.2022,-0.2036,-0.2046,-0.2055,-0.2061,-0.2069,-0.1969,-0.197,-0.197,0,-0.1554,-0.1593,-0.1614,-0.1653,-0.1687,-0.1712,-0.1756,-0.179,-0.1834,-0.1862,-0.1856,-0.1907,-0.1905,-0.1957,-0.1983,-0.1977,-0.1975,-0.1976,-0.205,-0.2058,-0.2066,-0.2068,-0.2077,-0.1975,-0.1974,-0.1974,-0.1973,0,-0.1589,-0.1637,-0.166,-0.1718,-0.1758,-0.1802,-0.185,-0.1899,-0.1932,-0.1958,-0.2024,-0.2023,-0.2048,-0.2063,-0.2045,-0.2108,-0.2088,-0.206,-0.2018,-0.2085,-0.2083,-0.209,-0.1983,-0.1981,-0.1979,-0.1978,0,0,-0.1567,-0.1666,-0.1676,-0.1721,-0.1799,-0.1831,-0.1912,-0.1982,-0.2035,-0.2082,-0.2143,-0.2177,-0.2175,-0.2179,-0.2171,-0.2189,-0.2244,-0.2156,-0.2155,-0.2162,-0.2278,-0.2143,-0.2137,-0.2235,-0.2236,-0.2237,-0.2259,0,-0.1591,-0.1669,-0.1718,-0.1807,-0.1853,-0.1917,-0.1989,-0.2059,-0.211,-0.2177,-0.2201,-0.2249,-0.2222,-0.2239,-0.2258,-0.2244,-0.2265,-0.224,-0.2211,-0.221,-0.2082,-0.2141,-0.2242,-0.2264,-0.2265,-0.2266,-0.2267,0,-0.1597,-0.1655,-0.1739,-0.1858,-0.1886,-0.1948,-0.2059,-0.2125,-0.2221,-0.2265,-0.2317,-0.2331,-0.2377,-0.2336,-0.2357,-0.2346,-0.2324,-0.2308,-0.2308,-0.2147,-0.2087,-0.218,-0.2278,-0.2278,-0.2277,-0.2276,-0.2275,0,-0.1545,-0.1668,-0.1736,-0.1776,-0.191,-0.1971,-0.2043,-0.2148,-0.2207,-0.2314,-0.2358,-0.2414,-0.2437,-0.2434,-0.2402,-0.2389,-0.2411,-0.238,-0.2243,-0.2233,-0.2302,-0.2292,-0.2396,-0.2396,-0.2396,-0.2396,-0.2396,0,-0.1527,-0.1588,-0.1724,-0.1762,-0.1854,-0.1956,-0.2052,-0.2135,-0.2246,-0.2306,-0.2389,-0.2422,-0.2463,-0.2474,-0.244,-0.2357,-0.2438,-0.2259,-0.2231,-0.2345,-0.234,-0.2307,-0.2297,-0.2397,-0.2397,-0.2397,-0.2396,0,-0.1445,-0.154,-0.1625,-0.1777,-0.183,-0.1887,-0.2041,-0.21,-0.2224,-0.2301,-0.2337,-0.2441,-0.2448,-0.2467,-0.2461,-0.238,-0.2329,-0.228,-0.2412,-0.239,-0.2136,-0.2131,-0.2129,-0.2124,-0.212,-0.2117,-0.2114,0,-0.1406,-0.1441,-0.1601,-0.1651,-0.1723,-0.1831,-0.1903,-0.2061,-0.2115,-0.228,-0.2295,-0.2372,-0.2412,-0.2304,-0.2336,-0.228,-0.2244,-0.2217,-0.2167,-0.2136,-0.211,-0.2111,-0.2111,-0.2108,-0.2107,-0.2106,-0.2105,0,-0.1318,-0.1381,-0.1446,-0.1547,-0.1635,-0.1722,-0.1834,-0.1867,-0.2034,-0.217,-0.2199,-0.2207,-0.222,-0.2205,-0.2183,-0.2136,-0.2235,-0.2176,-0.2183,-0.2135,-0.2112,-0.2089,-0.2094,-0.2092,-0.2094,-0.2095,-0.2096,0,-0.1239,-0.1253,-0.1341,-0.1416,-0.1523,-0.1574,-0.166,-0.1736,-0.1816,-0.201,-0.201,-0.2097,-0.2198,-0.213,-0.2104,-0.2056,-0.2015,-0.1946,-0.1965,-0.198,-0.1917,-0.1864,-0.1749,0,0,0,0,0,-0.1149,-0.1149,-0.1207,-0.1281,-0.138,-0.1438,-0.1596,-0.1686,-0.1856,-0.1828,-0.1919,-0.1923,-0.1911,-0.1955,-0.1867,-0.2012,-0.2008,-0.1903,-0.1936,-0.2018,-0.2033,-0.1971,0,0,0,0,0,0,-0.1089,-0.1124,-0.115,-0.1148,-0.1169,-0.126,-0.1353,-0.1477,-0.1479,-0.1658,-0.1656,-0.1792,-0.1795,-0.1909,-0.1814,-0.1826,-0.1809,-0.1965,-0.196,-0.2009,-0.2023,-0.2036,-0.1977,0,0,0,0,0]},{"header":{"parameterUnit":"m.s-1","parameterCategory":2,"la1":30.2991,"la2":30.254,"lo1":-89.0895,"lo2":-89.0444,"dy":0.0017,"dx":0.0017,"nx":28,"ny":28,"refTime":"2024-06-16T21:00:00:Z","depth":"4","parameterNumber":3,"parameterNumberName":"V-component_of_CURRENTS"},"data":[0,0,0,0,0,0,0,0,0,0,0,0,0,0,0,0,0,0,0,0,0,0,0,0,0,0,0,0,0,0,0,0,0,0,0,0,0,0,0,0,0,0,0,0,0,0,0,0,0,0,0,0,0,0,0,0,0,0,-0.009,-0.009,0,-0.0009,-0.0008,-0.0007,0.0037,0.0037,0.0037,0.0037,0.0169,0.0173,0.0176,0,0,0,0,0,0,0,0,0,0,0,0,0,-0.0149,-0.0149,-0.0091,-0.009,-0.0089,-0.0009,-0.0008,-0.0007,0.0037,0.0037,0.0037,0.0037,0.0168,0.0172,0.0176,0,0,0,0,0,0,0,0,0,0,0,0,0,-0.0101,-0.0149,-0.0091,-0.0058,-0.0054,-0.001,-0.0008,-0.0007,0.0037,0.0037,0.0037,0.0037,0.0167,0.0172,0.0177,0.0208,0,0,0.0193,0.0195,0,0,0,0,0,0,0,0,-0.0104,-0.0099,-0.0064,-0.006,-0.0056,0.0003,0.0019,0.0067,0.0037,0.0003,0.0037,0.0037,0.0118,0.0127,0.0143,0.0214,0.022,0.0193,0.0197,0.0199,0.02,0,0,0,0,0,0,0,-0.0107,-0.0102,-0.0057,-0.0063,-0.0058,-0.0027,-0.0021,0.0029,0.0061,0.0006,0.001,0.0017,0.012,0.0137,0.0146,0.0222,0.0193,0.0198,0.0201,0.0203,0.0322,0.0322,0,0,0,0,0,0,-0.0122,-0.0105,-0.006,-0.0055,-0.0081,-0.0026,-0.0019,-0.0015,0.0059,0.007,0.0017,0.0019,0.0129,0.014,0.0151,0.019,0.0199,0.0204,0.0207,0.0322,0.0322,0.0322,0,0,0,0,0,0,-0.0124,-0.0119,-0.0063,-0.0079,-0.007,-0.0026,-0.0022,-0.0014,0.0003,0.0067,0.0079,0.0025,0.0129,0.0144,0.0194,0.0195,0.0206,0.0211,0.0322,0.0322,0.0322,0.0269,0,0,0,0,0,0,-0.0126,-0.012,-0.0124,-0.008,-0.0069,-0.0043,-0.0021,-0.0012,0.0008,0.0011,0.0078,0.009,0.013,0.0186,0.0199,0.0203,0.0215,0.0322,0.0322,0.0322,0.0271,0.0267,0.0264,0,0,0,0,0,-0.0128,-0.0133,-0.0125,-0.0119,-0.0075,-0.0044,-0.0035,-0.0003,0.0008,0.0013,0.006,0.0088,0.0196,0.0191,0.0206,0.0211,0.0322,0.0322,0.0322,0.0272,0.0268,0.0264,0,0,0,0,0,0,-0.0159,-0.0128,-0.0118,-0.0113,-0.0084,-0.0037,-0.0031,-0.0007,0.0034,0.0036,0.0096,0.0112,0.0153,0.019,0.0183,0.0244,0.0261,0.0264,0.0218,0.0214,0.0211,0.0195,0.0219,0,0,0,0,0,-0.0169,-0.0168,-0.0129,-0.0127,-0.0117,-0.0075,-0.0059,-0.0037,0.0005,0.0022,0.0071,0.0121,0.0166,0.0195,0.0238,0.028,0.0315,0.0291,0.0287,0.0284,0.0281,0.0338,0.0339,0.0323,0.0323,0.0323,0,0,-0.0182,-0.0165,-0.0164,-0.0134,-0.0111,-0.01,-0.0065,-0.0046,-0.0032,0.0032,0.0065,0.0111,0.0173,0.0213,0.0235,0.0246,0.0306,0.0284,0.0281,0.028,0.0338,0.0339,0.0341,0.0323,0.0323,0.0323,0,0,-0.0208,-0.0191,-0.02,-0.018,-0.0151,-0.0122,-0.012,-0.0074,-0.005,-0.001,0.0035,0.0083,0.0153,0.0198,0.023,0.0238,0.0283,0.0247,0.0226,0.0281,0.0283,0.0285,0.0322,0.0328,0.025,0.025,0.025,0,-0.0226,-0.0233,-0.0197,-0.0197,-0.0187,-0.0137,-0.0142,-0.0106,-0.0048,-0.0027,-0.0009,0.0097,0.0146,0.0204,0.0203,0.0231,0.0262,0.0235,0.0276,0.0279,0.0282,0.032,0.0328,0.0248,0.0248,0.0248,0.0249,0,-0.0255,-0.0262,-0.0265,-0.0252,-0.0231,-0.0229,-0.0178,-0.0154,-0.0119,-0.0078,-0.0017,0.0058,0.012,0.0144,0.0178,0.0224,0.0238,0.0261,0.0283,0.028,0.0321,0.0329,0.0244,0.0245,0.0246,0.0246,0,0,-0.0294,-0.0291,-0.0293,-0.0304,-0.0264,-0.0253,-0.0227,-0.0188,-0.0173,-0.0102,-0.007,0.0016,0.006,0.0099,0.0155,0.0207,0.0252,0.0236,0.024,0.0268,0.0361,0.034,0.0348,0.0282,0.0284,0.0285,0.0378,0,-0.0333,-0.0368,-0.0339,-0.0361,-0.0376,-0.032,-0.0301,-0.0253,-0.02,-0.0154,-0.0061,-0.001,0.0044,0.0072,0.0134,0.0227,0.0273,0.0224,0.0365,0.0369,0.0346,0.0356,0.0289,0.0384,0.0386,0.0388,0.0389,0,-0.0368,-0.0392,-0.0432,-0.0433,-0.0431,-0.0427,-0.0391,-0.0366,-0.028,-0.0234,-0.0155,-0.008,0.0018,0.0053,0.0216,0.0182,0.0258,0.0329,0.0335,0.034,0.0364,0.0392,0.0405,0.0403,0.0402,0.0401,0.04,0,-0.0426,-0.0449,-0.0492,-0.0492,-0.0481,-0.0482,-0.0468,-0.0399,-0.0378,-0.0288,-0.0256,-0.0124,-0.0056,0.0067,0.0224,0.0218,0.0397,0.041,0.0462,0.0462,0.0476,0.0473,0.0506,0.0506,0.0506,0.0506,0.0505,0,-0.0475,-0.0507,-0.0532,-0.0555,-0.0597,-0.0554,-0.0568,-0.0526,-0.0463,-0.0435,-0.031,-0.0249,-0.0049,0.0084,0.0211,0.0368,0.0393,0.0458,0.0487,0.045,0.0444,0.0482,0.0478,0.0509,0.0508,0.0508,0.0507,0,-0.0522,-0.0541,-0.0595,-0.0617,-0.063,-0.0657,-0.0652,-0.0653,-0.058,-0.0538,-0.0512,-0.0335,-0.0157,0.0039,0.0254,0.0346,0.0499,0.0542,0.0482,0.0507,0.0526,0.0518,0.0602,0.0602,0.0602,0.0602,0.0602,0,-0.0548,-0.0587,-0.0654,-0.0698,-0.0715,-0.0752,-0.0774,-0.0723,-0.0708,-0.0586,-0.0564,-0.0387,-0.0254,0.0038,0.024,0.0485,0.0512,0.058,0.0555,0.0517,0.0537,0.0529,0.0522,0.0602,0.0602,0.0602,0.0602,0,-0.0596,-0.0625,-0.0672,-0.0773,-0.0824,-0.087,-0.0888,-0.0882,-0.0803,-0.0746,-0.0601,-0.0426,-0.0222,0.0023,0.022,0.0393,0.0534,0.0581,0.0581,0.0559,0.0519,0.0537,0.0529,0.0603,0.0603,0.0603,0.0603,0,-0.0625,-0.0676,-0.0749,-0.0828,-0.0907,-0.0954,-0.0956,-0.0918,-0.0887,-0.0736,-0.0692,-0.045,-0.0296,-0.0025,0.0158,0.0331,0.0362,0.0396,0.0407,0.0409,0.0327,0.0246,0.0271,0,0,0,0,0,-0.0644,-0.0708,-0.0797,-0.0881,-0.096,-0.0999,-0.1013,-0.0992,-0.0917,-0.0834,-0.0755,-0.0563,-0.0258,-0.0111,0.0054,0.0142,0.038,0.0339,0.042,0.0604,0.0604,0.0539,0,0,0,0,0,0,-0.0662,-0.0748,-0.0801,-0.0907,-0.097,-0.1043,-0.1055,-0.1006,-0.0938,-0.0839,-0.0674,-0.0554,-0.0257,-0.0361,0.0046,0.0105,0.0171,0.0496,0.0499,0.0604,0.0604,0.0604,0.0537,0,0,0,0,0]}]]